Location: B?ogocice
(50.2413°N, 20.2361°E)
Time: 15:17:00
(UTC+00:00)

SAR-Lupe-4 - Pass Details

Date: 18 September 2024
Orbit: 476 x 483 km, 98.1° (Epoch: 03 October)

Event Time Altitude Azimuth Distance (km) Brightness Sun altitude
Rises 02:51:49 0° 9° (N) 2,556 7.7 -14.5°
Reaches altitude 10° 02:53:57 10° 2° (N) 1,670 6.6 -14.2°
Maximum altitude 02:57:22 44° 290° (WNW) 681 3.9 -13.7°
Enters shadow 02:59:20 22° 229° (SW) 1,110 4.8 -13.4°
